Regional Weather Roundup
Issued by NWS

Home | Current Version | Previous Version | Text Only | Print | Product List | Glossary Off
Versions: 1 2 3 4 5 6 7 8 9 10 11 12 13 14 15 16 17 18 19 20 21 22 23 24 25 26 27 28 29 30 31 32 33 34 35 36 37 38 39 40 41 42 43 44 45 46 47 48 49 50

000
ASUS45 KABQ 240501
RWRNM
WEATHER ROUNDUP FOR NEW MEXICO
NATIONAL WEATHER SERVICE ALBUQUERQUE NM
1000 PM MST SUN NOV 23 2014

NOTE: "FAIR" MEANS FEW OR NO CLOUDS BELOW 12,000 FEET AGL WITH NO
       SIGNIFICANT WEATHER OR OBSTRUCTIONS TO VISION.

      THIS PRODUCT IS RELEASED AS TWO VERSIONS.  ONE VERSION NEAR
      THE TOP OF THE HOUR CONTAINING PRELIMINARY DATA FROM ALBUQUERQUE
      AND OTHER STATIONS.  A FINAL VERSION WITH ADDITIONAL DATA IS
      ISSUED ABOUT 10 MINUTES AFTER THE HOUR.

NMZ501-503-504-510>518-240600-
NORTHWEST PLATEAU/NORTHCENTRAL MOUNTAINS

CITY           SKY/WX    TMP DP  RH WIND       PRES   REMARKS
FARMINGTON     CLEAR     31  10  41 W13       30.11R WCI  21
SANTA FE       CLEAR     28   5  37 NW8       29.98R WCI  20
TAOS           PTCLDY    16   7  67 N9        30.00R WCI   4

$$
NMZ402-403-502-505>509-240600-
WESTCENTRAL MOUNTAINS/SOUTHWEST MOUNTAINS

CITY           SKY/WX    TMP DP  RH WIND       PRES   REMARKS
GALLUP         CLEAR     18   0  45 W3        30.14S
SILVER CITY    CLEAR     34  -2  21 N8        30.13R WCI  27

$$
NMZ407-409-411-412-240600-
SOUTHERN DESERTS

CITY           SKY/WX    TMP DP  RH WIND       PRES   REMARKS
DEMING         PTCLDY    45   0  15 NW10      30.10R
HOLLOMAN AFB   PTCLDY    37   5  26 N10       30.06R WCI  30
T OR C         CLEAR     43  -3  14 NW20G31   30.07R

$$
NMZ519>523-240600-
CENTRAL VALLEYS/CENTRAL HIGHLANDS

CITY           SKY/WX    TMP DP  RH WIND       PRES   REMARKS
ALBUQUERQUE    CLEAR     37  10  32 N12       30.06R WCI  29
DOUBLE EAGLE   CLEAR     33  10  37 NW22G32   30.05S WCI  21
CLINES CORNERS CLEAR     26  11  52 NW16      29.95R WCI  14
BELEN          FAIR      33   7  33 NW12      30.08S WCI  24
SOCORRO        NOT AVBL

$$
NMZ524>526-539-540-240600-
SOUTHCENTRAL MOUNTAINS

CITY           SKY/WX    TMP DP  RH WIND       PRES   REMARKS
RUIDOSO        CLEAR     30   5  34 NW14G23   30.04S WCI  20

$$
NMZ527>531-240600-
NORTHEAST HIGHLANDS/NORTHEAST PLAINS

CITY           SKY/WX    TMP DP  RH WIND       PRES   REMARKS
LAS VEGAS      CLOUDY    27  18  69 NW15      29.95S WCI  15
RATON          CLOUDY    27  24  89 NE5       29.94R WCI  22
CLAYTON        CLOUDY    35  25  66 NW20      29.93R WCI  24

$$
NMZ532>537-240600-
EASTCENTRAL PLAINS

CITY           SKY/WX    TMP DP  RH WIND       PRES   REMARKS
TUCUMCARI        N/A     35  31  85 W15       29.94S WCI  25
CANNON AFB     PTCLDY    33  28  80 NW12      29.96R WCI  25
CLOVIS AIRPORT PTCLDY    32  27  80 NW10      29.95R WCI  24

$$
NMZ028-029-538-240600-
SOUTHEAST PLAINS

CITY           SKY/WX    TMP DP  RH WIND       PRES   REMARKS
ROSWELL        CLEAR     30  26  85 SW7       30.02R WCI  23
CARLSBAD       PTCLDY    39  29  67 NW8       30.03R WCI  33
HOBBS          PTCLDY    36  27  69 W8        29.99S WCI  29


$$


USA.gov is the U.S. government's official web portal to all federal, state and local government web resources and services.